Location: Newark
(49.4900°N, 20.6656°E)
Time: 01:40:57
(UTC+00:00)

STARLINK-1654 - Pass Details

Date: 24 September 2020
Orbit: 548 x 550 km, 53.0° (Epoch: 29 October)

Event Time Altitude Azimuth Distance (km) Brightness Sun altitude
Exits shadow 01:33:57 43° 38° (NE) 783 4.7 -27.2°
Drops below altitude 10° 01:37:08 10° 74° (ENE) 1,825 7.2 -26.8°
Enters shadow 02:36:01 -66° 277° (W) 12,210 10.4 -18.4°
Maximum altitude 03:13:00 69° 17° (NNE) 590 3.8 -12.7°
Sets 03:19:22 0° 104° (ESE) 2,713 8.4 -11.7°
